Tracking 17264 objects as of 30-August-2015
HD Live streaming from Space Station

SL-14 R/B

Track SL-14 R/B now!
10-day predictions
SL-14 R/B is classified as:


NORAD ID: 16736
Int'l Code: 1986-039B
Perigee: 944.2 km
Apogee: 964.4 km
Inclination: 82.5 °
Period: 104.0 minutes
Semi major axis: 7325 km
RCS: 5.1168 m2 (large)
Launch date: May 27, 1986
Source: Commonwealth of Independent States (former USSR) (CIS)

Note: This is a ROCKET BODY
Your satellite tracking list
Your tracking list is empty





NASA's NSSDC Master Catalog

Two Line Element Set (TLE):
1 16736U 86039B   15242.36952365  .00000010  00000-0 -43405-5 0  9995
2 16736 082.5394 190.2097 0013773 139.0755 221.1442 13.84729364478805

Source of the keplerian elements: AFSPC

N2YO: 292